Météo par heure à Alkuzhinskie Borki

Ce jour, 14 Mai, Vendredi

Heure Température Précipitation Vent Pression Humidité
00:00 +14°C° 0 mm 1 m/s 754 mmHg 90%
01:00 +14°C° 0 mm 1 m/s 754 mmHg 91%
02:00 +13°C° 0 mm 2 m/s 754 mmHg 91%
03:00 +14°C° 0 mm 2 m/s 754 mmHg 93%
04:00 +14°C° 0.1 mm 2 m/s 754 mmHg 93%
05:00 +15°C° 0.1 mm 2 m/s 754 mmHg 94%
06:00 +15°C° 0.1 mm 2 m/s 754 mmHg 94%
07:00 +17°C° 0.1 mm 2 m/s 754 mmHg 88%
08:00 +19°C° 0.1 mm 2 m/s 754 mmHg 82%
09:00 +21°C° 0.1 mm 2 m/s 754 mmHg 76%
10:00 +22°C° 0 mm 3 m/s 754 mmHg 69%
11:00 +24°C° 0 mm 3 m/s 753 mmHg 62%
12:00 +26°C° 0 mm 3 m/s 753 mmHg 55%
13:00 +26°C° 0 mm 3 m/s 753 mmHg 55%
14:00 +26°C° 0 mm 4 m/s 753 mmHg 54%
15:00 +27°C° 0 mm 4 m/s 753 mmHg 54%
16:00 +26°C° 0 mm 3 m/s 752 mmHg 60%
17:00 +25°C° 0 mm 3 m/s 752 mmHg 67%
18:00 +24°C° 0 mm 2 m/s 752 mmHg 74%
19:00 +22°C° 0 mm 3 m/s 752 mmHg 77%
20:00 +21°C° 0 mm 3 m/s 751 mmHg 80%
21:00 +19°C° 0 mm 3 m/s 751 mmHg 84%
22:00 +19°C° 0 mm 3 m/s 751 mmHg 86%
23:00 +19°C° 0 mm 3 m/s 751 mmHg 88%

Demain, 15 Mai, Samedi

Heure Température Précipitation Vent Pression Humidité
00:00 +19°C° 0 mm 3 m/s 750 mmHg 89%
01:00 +18°C° 0 mm 3 m/s 750 mmHg 89%
02:00 +18°C° 0 mm 3 m/s 750 mmHg 90%
03:00 +17°C° 0 mm 3 m/s 750 mmHg 90%
04:00 +17°C° 0 mm 3 m/s 750 mmHg 89%
05:00 +17°C° 0 mm 3 m/s 750 mmHg 88%
06:00 +17°C° 0 mm 3 m/s 750 mmHg 87%
07:00 +19°C° 0 mm 4 m/s 750 mmHg 80%
08:00 +21°C° 0 mm 4 m/s 750 mmHg 74%
09:00 +22°C° 0 mm 5 m/s 750 mmHg 67%
10:00 +23°C° 0 mm 5 m/s 750 mmHg 65%
11:00 +24°C° 0 mm 6 m/s 750 mmHg 62%
12:00 +26°C° 0 mm 6 m/s 750 mmHg 60%
13:00 +25°C° 0.6 mm 5 m/s 750 mmHg 62%
14:00 +25°C° 0.6 mm 4 m/s 750 mmHg 65%
15:00 +24°C° 0.6 mm 3 m/s 751 mmHg 67%
16:00 +24°C° 0.6 mm 3 m/s 750 mmHg 69%
17:00 +24°C° 0.6 mm 3 m/s 750 mmHg 72%
18:00 +24°C° 0.6 mm 3 m/s 750 mmHg 74%
19:00 +21°C° 0.3 mm 3 m/s 750 mmHg 79%
20:00 +20°C° 0.3 mm 2 m/s 751 mmHg 84%
21:00 +18°C° 0.3 mm 2 m/s 751 mmHg 89%
22:00 +18°C° 0 mm 2 m/s 751 mmHg 90%
23:00 +17°C° 0 mm 2 m/s 751 mmHg 91%

Après-demain, 16 Mai, Dimanche

Heure Température Précipitation Vent Pression Humidité
00:00 +17°C° 0 mm 2 m/s 751 mmHg 92%
01:00 +16°C° 0 mm 2 m/s 751 mmHg 91%
02:00 +16°C° 0 mm 1 m/s 751 mmHg 90%
03:00 +15°C° 0 mm 1 m/s 751 mmHg 88%
04:00 +16°C° 0 mm 1 m/s 752 mmHg 87%
05:00 +16°C° 0 mm 1 m/s 752 mmHg 85%
06:00 +18°C° 0 mm 1 m/s 752 mmHg 83%
07:00 +20°C° 0 mm 1 m/s 752 mmHg 77%
08:00 +21°C° 0 mm 1 m/s 752 mmHg 71%
09:00 +23°C° 0 mm 1 m/s 752 mmHg 65%
10:00 +23°C° 0.1 mm 2 m/s 752 mmHg 63%
11:00 +24°C° 0.1 mm 2 m/s 752 mmHg 61%
12:00 +25°C° 0.1 mm 2 m/s 753 mmHg 59%
13:00 +25°C° 0 mm 2 m/s 752 mmHg 57%
14:00 +26°C° 0 mm 2 m/s 752 mmHg 55%
15:00 +26°C° 0 mm 1 m/s 752 mmHg 52%
16:00 +26°C° 0 mm 1 m/s 752 mmHg 57%
17:00 +25°C° 0 mm 1 m/s 752 mmHg 62%
18:00 +25°C° 0 mm 1 m/s 751 mmHg 67%
19:00 +23°C° 0 mm 1 m/s 751 mmHg 73%
20:00 +22°C° 0 mm 1 m/s 752 mmHg 78%
21:00 +20°C° 0 mm 1 m/s 752 mmHg 84%
22:00 +20°C° 0 mm 1 m/s 752 mmHg 84%
23:00 +19°C° 0 mm 1 m/s 752 mmHg 85%

17 Mai, Lundi

Heure Température Précipitation Vent Pression Humidité
00:00 +19°C° 0 mm 1 m/s 752 mmHg 85%
01:00 +17°C° 0 mm 2 m/s 752 mmHg 85%
02:00 +17°C° 0 mm 2 m/s 752 mmHg 85%
03:00 +16°C° 0 mm 2 m/s 752 mmHg 84%
04:00 +17°C° 0 mm 2 m/s 752 mmHg 83%
05:00 +17°C° 0 mm 2 m/s 751 mmHg 83%
06:00 +17°C° 0 mm 2 m/s 751 mmHg 82%
07:00 +19°C° 0 mm 3 m/s 751 mmHg 74%
08:00 +21°C° 0 mm 3 m/s 752 mmHg 66%
09:00 +24°C° 0 mm 3 m/s 752 mmHg 59%
10:00 +26°C° 0 mm 4 m/s 752 mmHg 53%
11:00 +27°C° 0 mm 4 m/s 751 mmHg 47%
12:00 +29°C° 0 mm 5 m/s 751 mmHg 41%
13:00 +29°C° 0 mm 5 m/s 751 mmHg 41%
14:00 +29°C° 0 mm 5 m/s 751 mmHg 42%
15:00 +29°C° 0 mm 4 m/s 751 mmHg 43%
16:00 +28°C° 0 mm 4 m/s 751 mmHg 49%
17:00 +27°C° 0 mm 4 m/s 751 mmHg 55%
18:00 +26°C° 0 mm 3 m/s 750 mmHg 61%
19:00 +24°C° 0 mm 3 m/s 750 mmHg 67%
20:00 +22°C° 0 mm 3 m/s 750 mmHg 73%
21:00 +20°C° 0 mm 3 m/s 750 mmHg 79%
22:00 +19°C° 0 mm 3 m/s 750 mmHg 77%
23:00 +19°C° 0 mm 3 m/s 750 mmHg 75%

18 Mai, Mardi

Heure Température Précipitation Vent Pression Humidité
00:00 +18°C° 0 mm 4 m/s 750 mmHg 73%
01:00 +18°C° 0 mm 4 m/s 750 mmHg 69%
02:00 +17°C° 0 mm 3 m/s 750 mmHg 66%
03:00 +17°C° 0 mm 3 m/s 750 mmHg 62%
04:00 +17°C° 0 mm 4 m/s 750 mmHg 62%
05:00 +17°C° 0 mm 4 m/s 750 mmHg 63%
06:00 +17°C° 0 mm 4 m/s 750 mmHg 63%
07:00 +19°C° 0 mm 4 m/s 750 mmHg 60%
08:00 +21°C° 0 mm 4 m/s 750 mmHg 56%
09:00 +23°C° 0 mm 4 m/s 750 mmHg 52%
10:00 +26°C° 0 mm 5 m/s 750 mmHg 48%
11:00 +27°C° 0 mm 5 m/s 750 mmHg 45%
12:00 +29°C° 0 mm 5 m/s 750 mmHg 41%
13:00 +29°C° 0 mm 5 m/s 749 mmHg 42%
14:00 +29°C° 0 mm 5 m/s 749 mmHg 43%
15:00 +29°C° 0 mm 5 m/s 749 mmHg 44%
16:00 +28°C° 0 mm 4 m/s 749 mmHg 50%
17:00 +27°C° 0 mm 3 m/s 749 mmHg 57%
18:00 +26°C° 0 mm 3 m/s 749 mmHg 63%
19:00 +24°C° 0 mm 3 m/s 749 mmHg 68%
20:00 +21°C° 0 mm 2 m/s 749 mmHg 74%
21:00 +20°C° 0 mm 2 m/s 749 mmHg 80%
22:00 +19°C° 0 mm 2 m/s 749 mmHg 82%
23:00 +20°C° 0 mm 1 m/s 750 mmHg 84%

19 Mai, Mercredi

Heure Température Précipitation Vent Pression Humidité
00:00 +19°C° 0 mm 1 m/s 750 mmHg 86%
01:00 +19°C° 0 mm 1 m/s 750 mmHg 85%
02:00 +19°C° 0 mm 1 m/s 750 mmHg 85%
03:00 +18°C° 0 mm 2 m/s 750 mmHg 84%
04:00 +18°C° 0.2 mm 2 m/s 750 mmHg 85%
05:00 +18°C° 0.2 mm 2 m/s 750 mmHg 85%
06:00 +18°C° 0.2 mm 2 m/s 751 mmHg 86%
07:00 +20°C° 0 mm 2 m/s 751 mmHg 79%
08:00 +21°C° 0 mm 2 m/s 751 mmHg 72%
09:00 +24°C° 0 mm 2 m/s 751 mmHg 66%
10:00 +25°C° 0 mm 2 m/s 751 mmHg 61%
11:00 +26°C° 0 mm 2 m/s 751 mmHg 57%
12:00 +27°C° 0 mm 2 m/s 751 mmHg 53%
13:00 +28°C° 0 mm 2 m/s 751 mmHg 51%
14:00 +28°C° 0 mm 2 m/s 750 mmHg 49%
15:00 +29°C° 0 mm 2 m/s 750 mmHg 48%
16:00 +28°C° 0 mm 2 m/s 750 mmHg 52%
17:00 +28°C° 0 mm 2 m/s 750 mmHg 57%
18:00 +27°C° 0 mm 2 m/s 749 mmHg 62%
19:00 +25°C° 0 mm 2 m/s 749 mmHg 66%
20:00 +23°C° 0 mm 2 m/s 749 mmHg 71%
21:00 +20°C° 0 mm 2 m/s 749 mmHg 75%
22:00 +20°C° 0 mm 2 m/s 749 mmHg 75%
23:00 +19°C° 0 mm 2 m/s 749 mmHg 76%
Voir plus

Nous avons besoin de votre consentement

Meteoprog et ses fournisseurs de services peuvent stocker et accéder à des données personnelles telles que des cookies, des identifiants d'appareils ou d'autres technologies similaires sur votre appareil et traiter ces données pour personnaliser le contenu et les publicités, ainsi que pour fournir des fonctionnalités de médias sociaux et analyser le trafic.

  • Stocker et/ou accéder à des informations sur votre appareil

    Des cookies, des identifiants d'appareils ou d'autres informations peuvent être stockés ou accessibles sur votre appareil aux fins indiquées ci-dessus.

  • Annonces et contenus personnalisés, mesure des annonces et des contenus, connaissance de l'audience et développement de produits

    Les annonces et le contenu peuvent être personnalisés en fonction d'un profil. D'autres données peuvent être ajoutées pour mieux personnaliser les annonces et le contenu. Les performances des publicités et du contenu peuvent être mesurées. Il est possible d'obtenir des informations sur le public qui a vu les publicités et le contenu. Ces données peuvent être utilisées pour développer ou améliorer l'expérience de l'utilisateur, les systèmes et les logiciels.

En cliquant sur "J'accepte", vous autorisez l'utilisation de cookies, des identifiants d'appareils, des balises web ou d'autres technologies similaires. Vos paramètres peuvent être modifiés dans le navigateur de votre appareil.

Dans certains cas, des intérêts légitimes peuvent être invoqués plutôt qu'un consentement. Vous pouvez en savoir plus à ce sujet dans notre Politique de confidentialité et de cookies.